Location: Bambrugge
(50.9212°N, 3.9299°E)
Time: 20:12:03
(UTC+00:00)

SL-16 R/B - Pass Details

Date: 11 August 2024
Orbit: 842 x 845 km, 71.0° (Epoch: 10 September)

Event Time Altitude Azimuth Distance (km) Brightness Sun altitude
Exits shadow 02:24:24 - 275° (W) 2,938 4.7 -15.8°
Reaches altitude 10° 02:26:11 10° 287° (WNW) 2,470 4.4 -15.6°
Maximum altitude 02:29:56 18° 329° (NNW) 1,984 4.3 -15.2°
Drops below altitude 10° 02:33:41 10° 10° (N) 2,478 5.6 -14.8°
Sets 02:37:01 0° 30° (NNE) 3,416 7.1 -14.5°
